 day,  time,  air_temp(C),  RH(%),  ground_temp10cm(C),  ground_temp20cm(C),  ground_temp40cm(C),  precipitation(mm/h),  Solar_Radiation(MJ/m2h),  lack, 
 03/09/01, 01:00,  18.7,  95,  19.8,  20.0,  19.9,   0.0,  0.00, 
 03/09/01, 02:00,  18.8,  96,  19.7,  20.0,  19.9,   0.0,  0.00, 
 03/09/01, 03:00,  18.8,  96,  19.7,  20.0,  19.9,   0.0,  0.00, 
 03/09/01, 04:00,  18.9,  97,  19.6,  19.9,  19.9,   0.0,  0.00, 
 03/09/01, 05:00,  18.8,  96,  19.6,  19.9,  19.9,   0.0,  0.00, 
 03/09/01, 06:00,  18.7,  97,  19.6,  19.9,  19.9,   0.0,  0.00, 
 03/09/01, 07:00,  19.5,  97,  19.5,  19.9,  19.9,   0.0,  0.24, 
 03/09/01, 08:00,  19.2,  96,  19.6,  19.8,  19.9,   0.0,  0.70, 
 03/09/01, 09:00,  20.2,  96,  19.7,  19.7,  19.9,   0.0,  0.59, 
 03/09/01, 10:00,  21.2,  91,  19.9,  19.8,  19.9,   0.0,  1.83, 
 03/09/01, 11:00,  22.8,  82,  20.5,  19.8,  19.9,   0.0,  2.47, 
 03/09/01, 12:00,  24.2,  80,  21.1,  19.8,  19.8,   0.0,  2.51, 
 03/09/01, 13:00,  25.1,  76,  22.0,  19.9,  19.8,   0.5,  3.07, 
 03/09/01, 14:00,  23.9,  75,  22.5,  20.1,  19.8,   0.0,  2.50, 
 03/09/01, 15:00,  22.7,  86,  22.7,  20.3,  19.8,   0.0,  1.79, 
 03/09/01, 16:00,  23.4,  81,  22.8,  20.5,  19.8,   0.0,  1.66, 
 03/09/01, 17:00,  21.3,  89,  22.8,  20.6,  19.8,   0.0,  0.84, 
 03/09/01, 18:00,  20.4,  90,  22.7,  20.8,  19.8,   0.0,  0.25, 
 03/09/01, 19:00,  19.7,  93,  22.6,  20.8,  19.8,   0.0,  0.00, 
 03/09/01, 20:00,  19.6,  93,  22.3,  20.9,  19.8,   0.5,  0.00, 
 03/09/01, 21:00,  20.1,  92,  22.1,  21.1,  19.8,   0.0,  0.00, 
 03/09/01, 22:00,  18.7,  99,  21.9,  21.1,  19.8,   0.0,  0.00, 
 03/09/01, 23:00,  19.0,  96,  21.8,  21.1,  19.9,   0.0,  0.00, 
 03/09/02, 00:00,  19.0,  94,  21.6,  21.1,  19.9,   0.0,  0.00, 
 03/09/02, 01:00,  19.4,  93,  21.4,  21.1,  19.9,   0.0,  0.00, 
 03/09/02, 02:00,  18.9,  96,  21.3,  21.1,  19.9,   0.0,  0.00, 
 03/09/02, 03:00,  18.7,  99,  21.2,  21.0,  19.9,   0.0,  0.00, 
 03/09/02, 04:00,  18.7,  95,  21.0,  21.0,  19.9,   0.0,  0.00, 
 03/09/02, 05:00,  18.8,  92,  20.9,  20.9,  20.0,   0.0,  0.00, 
 03/09/02, 06:00,  18.8,  93,  20.8,  20.9,  20.0,   0.0,  0.00, 
 03/09/02, 07:00,  19.6,  92,  20.7,  20.8,  20.0,   0.0,  0.17, 
 03/09/02, 08:00,  20.1,  90,  20.6,  20.8,  20.0,   0.0,  0.60, 
 03/09/02, 09:00,  20.8,  87,  20.7,  20.7,  20.0,   0.0,  0.96, 
 03/09/02, 10:00,  21.7,  83,  20.9,  20.7,  20.0,   0.0,  1.41, 
 03/09/02, 11:00,  23.2,  81,  21.3,  20.7,  20.0,   0.0,  2.44, 
 03/09/02, 12:00,  23.3,  79,  22.0,  20.7,  20.0,   0.0,  2.01, 
 03/09/02, 13:00,  24.2,  78,  22.6,  20.7,  20.0,   0.0,  1.94, 
 03/09/02, 14:00,  23.4,  82,  23.0,  20.8,  20.0,   0.0,  0.76, 
 03/09/02, 15:00,  24.3,  78,  23.1,  21.0,  20.0,   0.0,  1.35, 
 03/09/02, 16:00,  23.1,  80,  23.2,  21.1,  20.0,   0.0,  1.00, 
 03/09/02, 17:00,  23.1,  80,  23.2,  21.3,  20.0,   0.0,  0.84, 
 03/09/02, 18:00,  21.3,  91,  23.1,  21.4,  20.0,   0.0,  0.26, 
 03/09/02, 19:00,  20.0,  97,  23.0,  21.4,  20.1,   0.0,  0.00, 
 03/09/02, 20:00,  19.9,  98,  22.7,  21.5,  20.1,   0.0,  0.00, 
 03/09/02, 21:00,  19.5,  98,  22.5,  21.5,  20.1,   0.0,  0.00, 
 03/09/02, 22:00,  18.4,  99,  22.2,  21.6,  20.1,   0.0,  0.00, 
 03/09/02, 23:00,  18.5,  99,  22.0,  21.5,  20.1,   0.0,  0.00, 
 03/09/03, 00:00,  19.1,  91,  21.8,  21.5,  20.1,   0.0,  0.00, 
 03/09/03, 01:00,  19.0,  95,  21.6,  21.5,  20.1,   0.0,  0.00, 
 03/09/03, 02:00,  18.1,  99,  21.4,  21.4,  20.2,   0.0,  0.00, 
 03/09/03, 03:00,  17.9,  97,  21.2,  21.4,  20.2,   0.0,  0.00, 
 03/09/03, 04:00,  17.2,  98,  21.0,  21.2,  20.2,   0.0,  0.00, 
 03/09/03, 05:00,  16.9,  98,  20.8,  21.2,  20.2,   0.0,  0.00, 
 03/09/03, 06:00,  17.9,  95,  20.7,  21.1,  20.2,   0.0,  0.00, 
 03/09/03, 07:00,  18.9,  95,  20.5,  21.1,  20.2,   0.0,  0.35, 
 03/09/03, 08:00,  21.5,  81,  20.5,  21.0,  20.2,   0.0,  1.00, 
 03/09/03, 09:00,  22.0,  79,  20.7,  20.8,  20.2,   0.0,  1.63, 
 03/09/03, 10:00,  21.9,  86,  20.9,  20.9,  20.2,   0.0,  1.61, 
 03/09/03, 11:00,  21.6,  89,  21.2,  20.8,  20.2,   0.0,  1.02, 
 03/09/03, 12:00,  22.8,  79,  21.6,  20.8,  20.2,   0.0,  2.00, 
 03/09/03, 13:00,  20.3,  99,  22.1,  20.9,  20.2,   0.0,  0.84, 
 03/09/03, 14:00,  20.9,  97,  22.3,  20.9,  20.2,   0.5,  1.53, 
 03/09/03, 15:00,  21.1,  96,  22.5,  21.0,  20.2,   0.0,  1.25, 
 03/09/03, 16:00,  20.6,  92,  22.6,  21.1,  20.2,   0.0,  0.92, 
 03/09/03, 17:00,  20.4,  93,  22.7,  21.2,  20.2,   0.0,  0.98, 
 03/09/03, 18:00,  20.1,  90,  22.6,  21.3,  20.2,   0.0,  0.42, 
 03/09/03, 19:00,  18.5,  99,  22.4,  21.3,  20.2,   0.5,  0.00, 
 03/09/03, 20:00,  19.4,  89,  22.2,  21.4,  20.2,   0.0,  0.00, 
 03/09/03, 21:00,  19.4,  88,  21.9,  21.4,  20.2,   0.0,  0.00, 
 03/09/03, 22:00,  17.6,  98,  21.7,  21.4,  20.2,   0.0,  0.00, 
 03/09/03, 23:00,  17.7,  98,  21.5,  21.4,  20.2,   0.0,  0.00, 
 03/09/04, 00:00,  18.0,  97,  21.3,  21.3,  20.3,   0.0,  0.00, 
 03/09/04, 01:00,  17.9,  99,  21.2,  21.3,  20.3,   0.0,  0.00, 
 03/09/04, 02:00,  17.6,  99,  21.1,  21.2,  20.3,   0.0,  0.00, 
 03/09/04, 03:00,  17.3,  98,  20.9,  21.2,  20.3,   0.0,  0.00, 
 03/09/04, 04:00,  17.3,  96,  20.8,  21.1,  20.3,   0.0,  0.00, 
 03/09/04, 05:00,  17.3,  97,  20.6,  20.9,  20.3,   0.5,  0.00, 
 03/09/04, 06:00,  17.0,  95,  20.5,  21.0,  20.3,   0.0,  0.00, 
 03/09/04, 07:00,  17.3,  98,  20.4,  20.9,  20.3,   0.0,  0.27, 
 03/09/04, 08:00,  19.2,  88,  20.3,  20.8,  20.3,   0.0,  1.23, 
 03/09/04, 09:00,  19.0,  89,  20.4,  20.8,  20.3,   0.0,  2.38, 
 03/09/04, 10:00,  19.7,  85,  20.6,  20.7,  20.3,   0.0,  2.01, 
 03/09/04, 11:00,  20.9,  83,  21.0,  20.7,  20.3,   0.0,  1.97, 
 03/09/04, 12:00,  22.4,  75,  21.6,  20.7,  20.3,   0.0,  3.08, 
 03/09/04, 13:00,  22.5,  75,  22.5,  20.7,  20.3,   0.0,  3.00, 
 03/09/04, 14:00,  22.9,  74,  23.0,  20.8,  20.3,   0.0,  2.91, 
 03/09/04, 15:00,  22.1,  68,  23.0,  21.0,  20.3,   0.0,  2.51, 
 03/09/04, 16:00,  21.8,  70,  22.9,  21.1,  20.3,   0.0,  1.89, 
 03/09/04, 17:00,  20.1,  78,  22.8,  21.3,  20.2,   0.0,  1.18, 
 03/09/04, 18:00,  17.6,  93,  22.6,  21.4,  20.2,   0.0,  0.36, 
 03/09/04, 19:00,  16.2,  99,  22.3,  21.4,  20.3,   0.0,  0.00, 
 03/09/04, 20:00,  15.3,  99,  22.0,  21.5,  20.3,   0.0,  0.00, 
 03/09/04, 21:00,  14.8,  99,  21.6,  21.5,  20.3,   0.0,  0.00, 
 03/09/04, 22:00,  15.8,  96,  21.3,  21.4,  20.3,   0.0,  0.00, 
 03/09/04, 23:00,  15.0,  99,  21.0,  21.4,  20.3,   0.0,  0.00, 
 03/09/05, 00:00,  15.1,  99,  20.8,  21.2,  20.3,   0.0,  0.00, 
 03/09/05, 01:00,  15.1,  99,  20.6,  21.2,  20.3,   0.0,  0.00, 
 03/09/05, 02:00,  15.4,  99,  20.4,  21.0,  20.3,   0.0,  0.00, 
 03/09/05, 03:00,  14.2,  99,  20.2,  21.0,  20.3,   0.0,  0.00, 
 03/09/05, 04:00,  14.0,  99,  20.0,  20.8,  20.3,   0.0,  0.00, 
 03/09/05, 05:00,  13.5,  99,  19.8,  20.8,  20.3,   0.0,  0.00, 
 03/09/05, 06:00,  14.0,  99,  19.6,  20.7,  20.3,   0.0,  0.00, 
 03/09/05, 07:00,  15.8,  98,  19.4,  20.5,  20.3,   0.0,  0.48, 
 03/09/05, 08:00,  16.7,  88,  19.3,  20.5,  20.3,   0.0,  1.19, 
 03/09/05, 09:00,  18.6,  80,  19.4,  20.4,  20.3,   0.0,  1.98, 
 03/09/05, 10:00,  21.4,  73,  19.5,  20.3,  20.3,   0.0,  2.66, 
 03/09/05, 11:00,  19.6,  80,  20.1,  20.3,  20.3,   0.0,  2.22, 
 03/09/05, 12:00,  22.3,  65,  20.9,  20.2,  20.3,   0.0,  2.94, 
 03/09/05, 13:00,  22.4,  71,  21.8,  20.3,  20.3,   0.0,  2.50, 
 03/09/05, 14:00,  22.9,  68,  22.3,  20.4,  20.2,   0.0,  2.34, 
 03/09/05, 15:00,  21.9,  70,  22.4,  20.5,  20.2,   0.0,  2.14, 
 03/09/05, 16:00,  21.1,  72,  22.5,  20.7,  20.2,   0.0,  1.76, 
 03/09/05, 17:00,  19.7,  77,  22.4,  20.8,  20.2,   0.0,  1.15, 
 03/09/05, 18:00,  18.2,  88,  22.1,  20.9,  20.2,   0.0,  0.35, 
 03/09/05, 19:00,  16.8,  97,  21.8,  21.0,  20.2,   0.0,  0.00, 
 03/09/05, 20:00,  17.0,  96,  21.7,  21.1,  20.2,   0.0,  0.00, 
 03/09/05, 21:00,  16.6,  97,  21.4,  21.0,  20.2,   0.0,  0.00, 
 03/09/05, 22:00,  16.4,  96,  21.2,  21.1,  20.2,   0.0,  0.00, 
 03/09/05, 23:00,  15.7,  99,  20.9,  21.1,  20.2,   0.0,  0.00, 
 03/09/06, 00:00,  15.6,  95,  20.8,  20.9,  20.2,   0.0,  0.00, 
 03/09/06, 01:00,  15.3,  98,  20.6,  21.0,  20.2,   0.0,  0.00, 
 03/09/06, 02:00,  15.3,  96,  20.4,  20.8,  20.2,   0.0,  0.00, 
 03/09/06, 03:00,  16.7,  86,  20.2,  20.8,  20.2,   0.0,  0.00, 
 03/09/06, 04:00,  16.9,  90,  20.0,  20.8,  20.2,   0.0,  0.00, 
 03/09/06, 05:00,  16.9,  92,  19.9,  20.7,  20.2,   0.0,  0.00, 
 03/09/06, 06:00,  17.2,  92,  19.8,  20.6,  20.2,   0.0,  0.00, 
 03/09/06, 07:00,  17.2,  93,  19.7,  20.4,  20.2,   0.0,  0.00, 
 03/09/06, 08:00,  17.4,  93,  19.7,  20.5,  20.2,   0.0,  0.10, 
 03/09/06, 09:00,  17.8,  92,  19.6,  20.4,  20.2,   0.0,  0.22, 
 03/09/06, 10:00,  17.7,  94,  19.7,  20.2,  20.2,   0.0,  0.17, 
 03/09/06, 11:00,  17.3,  99,  19.7,  20.3,  20.2,   0.0,  0.23, 
 03/09/06, 12:00,  17.4,  99,  19.7,  20.1,  20.2,   3.0,  0.29, 
 03/09/06, 13:00,  17.7,  99,  19.7,  20.1,  20.2,   0.5,  0.47, 
 03/09/06, 14:00,  19.5,  97,  19.9,  20.1,  20.2,   0.0,  1.51, 
 03/09/06, 15:00,  19.7,  97,  20.2,  20.1,  20.2,   0.0,  1.27, 
 03/09/06, 16:00,  19.6,  91,  20.5,  20.0,  20.1,   0.0,  0.62, 
 03/09/06, 17:00,  19.5,  92,  20.7,  20.1,  20.1,   0.0,  0.54, 
 03/09/06, 18:00,  18.5,  99,  20.7,  20.1,  20.1,   0.0,  0.32, 
 03/09/06, 19:00,  17.9,  99,  20.7,  20.2,  20.1,   0.5,  0.00, 
 03/09/06, 20:00,  17.8,  89,  20.5,  20.3,  20.1,   0.0,  0.00, 
 03/09/06, 21:00,  17.7,  92,  20.3,  20.2,  20.1,   0.0,  0.00, 
 03/09/06, 22:00,  16.4,  99,  20.1,  20.3,  20.1,   0.0,  0.00, 
 03/09/06, 23:00,  14.9,  99,  19.9,  20.2,  20.1,   0.0,  0.00, 
 03/09/07, 00:00,  14.3,  99,  19.7,  20.3,  20.0,   0.0,  0.00, 
 03/09/07, 01:00,  14.5,  99,  19.5,  20.1,  20.0,   0.0,  0.00, 
 03/09/07, 02:00,  14.7,  99,  19.4,  20.0,  20.0,   0.0,  0.00, 
 03/09/07, 03:00,  14.8,  99,  19.3,  20.0,  20.0,   0.0,  0.00, 
 03/09/07, 04:00,  14.8,  99,  19.1,  20.0,  20.0,   0.0,  0.00, 
 03/09/07, 05:00,  14.5,  99,  19.0,  20.0,  20.0,   0.0,  0.00, 
 03/09/07, 06:00,  14.1,  99,  19.0,  19.9,  20.0,   0.0,  0.00, 
 03/09/07, 07:00,  14.6,  95,  18.9,  19.8,  20.0,   0.0,  0.42, 
 03/09/07, 08:00,  16.8,  90,  18.9,  19.8,  20.0,   0.0,  1.24, 
 03/09/07, 09:00,  17.2,  88,  19.0,  19.7,  20.0,   0.0,  2.01, 
 03/09/07, 10:00,  18.5,  86,  19.1,  19.7,  20.0,   0.0,  2.61, 
 03/09/07, 11:00,  20.2,  83,  19.8,  19.7,  20.0,   0.0,  3.25, 
 03/09/07, 12:00,  21.3,  80,  20.8,  19.7,  19.9,   0.5,  3.33, 
 03/09/07, 13:00,  22.8,  74,  21.8,  19.7,  19.9,   0.0,  3.13, 
 03/09/07, 14:00,  23.7,  68,  22.4,  19.9,  19.9,   0.0,  2.86, 
 03/09/07, 15:00,  23.7,  68,  22.5,  20.1,  19.9,   0.0,  2.47, 
 03/09/07, 16:00,  21.8,  71,  22.4,  20.3,  19.9,   0.0,  1.81, 
 03/09/07, 17:00,  20.5,  74,  22.3,  20.5,  19.9,   0.0,  1.10, 
 03/09/07, 18:00,  19.2,  83,  22.1,  20.6,  19.9,   0.0,  0.32, 
 03/09/07, 19:00,  17.8,  92,  21.8,  20.7,  19.9,   0.0,  0.00, 
 03/09/07, 20:00,  17.3,  94,  21.6,  20.8,  19.9,   0.0,  0.00, 
 03/09/07, 21:00,  17.1,  93,  21.3,  20.8,  19.9,   0.0,  0.00, 
 03/09/07, 22:00,  16.9,  94,  21.1,  20.8,  19.9,   0.0,  0.00, 
 03/09/07, 23:00,  16.2,  97,  20.8,  20.8,  19.9,   0.0,  0.00, 
 03/09/08, 00:00,  16.6,  96,  20.6,  20.8,  19.9,   0.0,  0.00, 
 03/09/08, 01:00,  16.5,  98,  20.4,  20.7,  19.9,   0.0,  0.00, 
 03/09/08, 02:00,  16.8,  99,  20.2,  20.7,  19.9,   0.0,  0.00, 
 03/09/08, 03:00,  16.9,  99,  20.1,  20.6,  19.9,   0.0,  0.00, 
 03/09/08, 04:00,  17.0,  96,  20.0,  20.5,  19.9,   0.0,  0.00, 
 03/09/08, 05:00,  16.7,  99,  20.0,  20.5,  19.9,   0.0,  0.00, 
 03/09/08, 06:00,  16.9,  98,  19.9,  20.4,  19.9,   0.0,  0.00, 
 03/09/08, 07:00,  17.7,  95,  19.8,  20.3,  20.0,   0.0,  0.19, 
 03/09/08, 08:00,  19.1,  88,  19.8,  20.3,  20.0,   0.0,  0.89, 
 03/09/08, 09:00,  20.2,  86,  19.9,  20.2,  19.9,   0.0,  1.52, 
 03/09/08, 10:00,  20.7,  86,  20.1,  20.1,  19.9,   0.0,  1.47, 
 03/09/08, 11:00,  19.5,  96,  20.4,  20.2,  19.9,   0.0,  0.79, 
 03/09/08, 12:00,  19.7,  96,  20.6,  20.2,  19.9,   0.0,  0.43, 
 03/09/08, 13:00,  20.8,  90,  20.8,  20.2,  19.9,   0.0,  1.36, 
 03/09/08, 14:00,  20.9,  88,  21.1,  20.2,  19.9,   0.0,  1.31, 
 03/09/08, 15:00,  21.0,  88,  21.3,  20.3,  19.9,   0.0,  1.08, 
 03/09/08, 16:00,  21.3,  87,  21.4,  20.3,  19.9,   0.0,  0.90, 
 03/09/08, 17:00,  20.1,  91,  21.5,  20.4,  19.9,   0.0,  0.78, 
 03/09/08, 18:00,  18.6,  95,  21.5,  20.5,  19.9,   0.0,  0.22, 
 03/09/08, 19:00,  17.6,  99,  21.3,  20.5,  19.9,   0.0,  0.00, 
 03/09/08, 20:00,  17.6,  95,  21.1,  20.6,  19.9,   0.0,  0.00, 
 03/09/08, 21:00,  16.8,  97,  20.9,  20.6,  19.9,   0.0,  0.00, 
 03/09/08, 22:00,  16.7,  98,  20.6,  20.6,  19.9,   0.0,  0.00, 
 03/09/08, 23:00,  16.8,  99,  20.4,  20.6,  19.9,   0.0,  0.00, 
 03/09/09, 00:00,  16.9,  96,  20.2,  20.4,  19.9,   0.0,  0.00, 
 03/09/09, 01:00,  16.9,  96,  20.1,  20.5,  19.9,   0.0,  0.00, 
 03/09/09, 02:00,  16.8,  98,  19.9,  20.4,  19.9,   0.0,  0.00, 
 03/09/09, 03:00,  16.4,  99,  19.8,  20.4,  19.9,   0.0,  0.00, 
 03/09/09, 04:00,  16.1,  99,  19.6,  20.3,  19.9,   0.0,  0.00, 
 03/09/09, 05:00,  15.7,  96,  19.5,  20.1,  19.9,   0.0,  0.00, 
 03/09/09, 06:00,  16.7,  88,  19.3,  20.1,  19.9,   0.0,  0.00, 
 03/09/09, 07:00,  18.4,  92,  19.0,  20.0,  19.9,   0.0,  0.43, 
 03/09/09, 08:00,  20.4,  80,  19.0,  20.0,  19.9,   0.0,  1.23, 
 03/09/09, 09:00,  20.6,  83,  19.1,  19.9,  19.9,   0.0,  2.15, 
 03/09/09, 10:00,  22.3,  78,  19.4,  19.9,  19.9,   0.0,  2.71, 
 03/09/09, 11:00,  21.9,  79,  20.1,  19.8,  19.9,   0.0,  2.65, 
 03/09/09, 12:00,  22.6,  76,  21.0,  19.8,  19.9,   0.0,  2.10, 
 03/09/09, 13:00,  24.9,  62,  21.7,  19.9,  19.9,   0.0,  2.67, 
 03/09/09, 14:00,  25.0,  60,  22.3,  20.1,  19.9,   0.0,  2.93, 
 03/09/09, 15:00,  23.8,  68,  22.4,  20.2,  19.9,   0.0,  2.16, 
 03/09/09, 16:00,  22.9,  73,  22.4,  20.4,  19.9,   0.0,  1.77, 
 03/09/09, 17:00,  22.1,  76,  22.3,  20.6,  19.9,   0.0,  1.05, 
 03/09/09, 18:00,  20.8,  84,  22.1,  20.7,  19.8,   0.0,  0.29, 
 03/09/09, 19:00,  19.9,  88,  21.9,  20.8,  19.8,   0.0,  0.00, 
 03/09/09, 20:00,  19.5,  86,  21.7,  20.8,  19.8,   0.0,  0.00, 
 03/09/09, 21:00,  18.5,  91,  21.5,  20.8,  19.8,   0.0,  0.00, 
 03/09/09, 22:00,  18.0,  97,  21.3,  20.8,  19.9,   0.0,  0.00, 
 03/09/09, 23:00,  17.7,  99,  21.1,  20.8,  19.9,   0.0,  0.00, 
 03/09/10, 00:00,  17.2,  99,  20.8,  20.8,  19.9,   0.0,  0.00, 
 03/09/10, 01:00,  16.0,  99,  20.7,  20.8,  19.9,   0.0,  0.00, 
 03/09/10, 02:00,  16.4,  99,  20.5,  20.8,  19.9,   0.0,  0.00, 
 03/09/10, 03:00,  17.5,  92,  20.2,  20.6,  19.9,   0.0,  0.00, 
 03/09/10, 04:00,  18.5,  86,  20.0,  20.5,  19.9,   0.0,  0.00, 
 03/09/10, 05:00,  18.3,  88,  20.0,  20.6,  19.9,   0.0,  0.00, 
 03/09/10, 06:00,  18.4,  86,  19.9,  20.4,  19.9,   0.0,  0.00, 
 03/09/10, 07:00,  18.4,  90,  19.9,  20.3,  19.9,   0.0,  0.21, 
 03/09/10, 08:00,  17.7,  99,  19.9,  20.3,  19.9,   2.5,  0.28, 
 03/09/10, 09:00,  17.5,  99,  19.7,  20.2,  19.9,   4.0,  0.15, 
 03/09/10, 10:00,  18.4,  99,  19.8,  20.2,  19.9,   2.0,  0.48, 
 03/09/10, 11:00,  19.1,  93,  19.8,  20.2,  19.9,   0.0,  0.88, 
 03/09/10, 12:00,  19.0,  94,  20.0,  20.1,  19.9,   0.0,  0.92, 
 03/09/10, 13:00,  19.0,  94,  20.2,  20.1,  19.9,   0.0,  0.54, 
 03/09/10, 14:00,  20.1,  91,  20.3,  20.0,  19.9,   0.5,  0.82, 
 03/09/10, 15:00,  20.1,  89,  20.4,  20.1,  19.9,   0.0,  1.14, 
 03/09/10, 16:00,  19.8,  91,  20.6,  20.1,  19.9,   0.0,  0.57, 
 03/09/10, 17:00,  19.8,  90,  20.7,  20.2,  19.9,   0.0,  0.39, 
 03/09/10, 18:00,  18.6,  94,  20.8,  20.2,  19.9,   0.0,  0.08, 
 03/09/10, 19:00,  18.5,  96,  20.7,  20.3,  19.9,   0.0,  0.00, 
 03/09/10, 20:00,  18.5,  96,  20.6,  20.3,  19.9,   0.0,  0.00, 
 03/09/10, 21:00,  18.4,  96,  20.5,  20.3,  19.9,   0.0,  0.00, 
 03/09/10, 22:00,  17.7,  97,  20.4,  20.3,  19.9,   0.0,  0.00, 
 03/09/10, 23:00,  17.9,  96,  20.3,  20.3,  19.9,   0.0,  0.00, 
 03/09/11, 00:00,  17.8,  97,  20.2,  20.3,  19.9,   0.0,  0.00, 
 03/09/11, 01:00,  17.9,  95,  20.1,  20.3,  19.9,   0.0,  0.00, 
 03/09/11, 02:00,  17.6,  96,  20.0,  20.1,  19.9,   0.0,  0.00, 
 03/09/11, 03:00,  16.5,  99,  19.9,  20.1,  19.9,   0.0,  0.00, 
 03/09/11, 04:00,  16.5,  99,  19.7,  20.2,  19.9,   0.0,  0.00, 
 03/09/11, 05:00,  16.9,  98,  19.6,  20.0,  19.9,   0.0,  0.00, 
 03/09/11, 06:00,  17.9,  94,  19.5,  20.0,  19.9,   0.0,  0.00, 
 03/09/11, 07:00,  18.6,  93,  19.4,  20.0,  19.9,   0.0,  0.09, 
 03/09/11, 08:00,  19.7,  92,  19.5,  20.0,  19.9,   0.0,  0.45, 
 03/09/11, 09:00,  20.7,  89,  19.6,  19.9,  19.9,   0.5,  0.84, 
 03/09/11, 10:00,  23.3,  80,  19.8,  19.9,  19.9,   0.0,  1.56, 
 03/09/11, 11:00,  22.9,  81,  20.4,  19.9,  19.8,   0.0,  3.00, 
 03/09/11, 12:00,  25.2,  77,  21.2,  19.9,  19.8,   0.0,  2.88, 
 03/09/11, 13:00,  23.6,  79,  22.1,  20.0,  19.8,   0.5,  1.88, 
 03/09/11, 14:00,  24.9,  74,  22.6,  20.1,  19.8,   0.0,  2.25, 
 03/09/11, 15:00,  25.0,  75,  22.8,  20.3,  19.8,   0.0,  2.17, 
 03/09/11, 16:00,  23.5,  80,  22.8,  20.5,  19.8,   0.0,  1.28, 
 03/09/11, 17:00,  21.8,  84,  22.9,  20.7,  19.8,   0.0,  0.63, 
 03/09/11, 18:00,  20.6,  92,  22.8,  20.8,  19.8,   0.5,  0.16, 
 03/09/11, 19:00,  18.8,  98,  22.6,  20.9,  19.8,   0.0,  0.00, 
 03/09/11, 20:00,  18.8,  97,  22.3,  21.0,  19.8,   0.0,  0.00, 
 03/09/11, 21:00,  18.9,  99,  22.0,  21.1,  19.8,   0.0,  0.00, 
 03/09/11, 22:00,  18.2,  99,  21.8,  21.1,  19.8,   0.0,  0.00, 
 03/09/11, 23:00,  18.5,  99,  21.6,  21.1,  19.8,   0.0,  0.00, 
 03/09/12, 00:00,  18.5,  99,  21.4,  21.1,  19.9,   0.0,  0.00, 
 03/09/12, 01:00,  17.8,  99,  21.2,  21.0,  19.9,   0.0,  0.00, 
 03/09/12, 02:00,  17.3,  99,  21.0,  21.0,  19.9,   0.0,  0.00, 
 03/09/12, 03:00,  16.9,  99,  20.8,  21.0,  19.9,   0.0,  0.00, 
 03/09/12, 04:00,  17.7,  99,  20.6,  20.9,  19.9,   0.0,  0.00, 
 03/09/12, 05:00,  17.8,  98,  20.4,  20.8,  19.9,   0.0,  0.00, 
 03/09/12, 06:00,  18.5,  95,  20.3,  20.7,  20.0,   0.0,  0.02, 
 03/09/12, 07:00,  18.9,  97,  20.2,  20.7,  20.0,   0.0,  0.34, 
 03/09/12, 08:00,  19.7,  93,  20.2,  20.6,  20.0,   0.0,  1.10, 
 03/09/12, 09:00,  21.6,  90,  20.2,  20.5,  20.0,   0.0,  1.49, 
 03/09/12, 10:00,  21.5,  92,  20.4,  20.5,  20.0,   0.0,  1.10, 
 03/09/12, 11:00,  21.0,  95,  20.7,  20.5,  20.0,   0.0,  0.96, 
 03/09/12, 12:00,  23.1,  86,  21.0,  20.4,  20.0,   0.0,  1.71, 
 03/09/12, 13:00,  24.5,  80,  21.4,  20.5,  20.0,   0.0,  2.18, 
 03/09/12, 14:00,  23.6,  81,  22.0,  20.5,  20.0,   0.0,  1.59, 
 03/09/12, 15:00,  23.3,  86,  22.3,  20.6,  20.0,   0.0,  0.98, 
 03/09/12, 16:00,  23.0,  88,  22.4,  20.7,  20.0,   0.0,  1.26, 
 03/09/12, 17:00,  21.9,  86,  22.5,  20.8,  20.0,   0.0,  0.65, 
 03/09/12, 18:00,  20.8,  92,  22.5,  20.9,  20.0,   0.0,  0.09, 
 03/09/12, 19:00,  19.6,  99,  22.3,  21.0,  20.0,   0.0,  0.00, 
 03/09/12, 20:00,  18.5,  99,  22.2,  21.1,  20.0,   0.0,  0.00, 
 03/09/12, 21:00,  18.2,  99,  21.9,  21.1,  20.0,   0.0,  0.00, 
 03/09/12, 22:00,  18.0,  99,  21.7,  21.1,  20.0,   0.0,  0.00, 
 03/09/12, 23:00,  17.7,  99,  21.5,  21.1,  20.0,   0.0,  0.00, 
 03/09/13, 00:00,  17.1,  99,  21.2,  21.1,  20.0,   0.0,  0.00, 
 03/09/13, 01:00,  17.7,  97,  21.0,  21.1,  20.0,   0.0,  0.00, 
 03/09/13, 02:00,  18.1,  95,  20.8,  21.0,  20.0,   0.0,  0.00, 
 03/09/13, 03:00,  19.4,  87,  20.7,  20.9,  20.0,   0.0,  0.00, 
 03/09/13, 04:00,  19.2,  90,  20.6,  20.8,  20.1,   0.0,  0.00, 
 03/09/13, 05:00,  19.5,  91,  20.5,  20.8,  20.1,   0.0,  0.00, 
 03/09/13, 06:00,  19.5,  93,  20.4,  20.8,  20.1,   0.0,  0.00, 
 03/09/13, 07:00,  20.1,  88,  20.3,  20.7,  20.1,   0.0,  0.26, 
 03/09/13, 08:00,  20.3,  89,  20.3,  20.7,  20.1,   0.0,  0.49, 
 03/09/13, 09:00,  19.9,  91,  20.4,  20.6,  20.1,   0.0,  0.29, 
 03/09/13, 10:00,  21.2,  88,  20.4,  20.6,  20.1,   0.0,  0.71, 
 03/09/13, 11:00,  21.1,  92,  20.5,  20.5,  20.1,   0.0,  0.76, 
 03/09/13, 12:00,  21.1,  95,  20.7,  20.5,  20.1,   0.0,  1.16, 
 03/09/13, 13:00,  21.7,  85,  21.0,  20.5,  20.1,   0.0,  1.32, 
 03/09/13, 14:00,  23.3,  81,  21.2,  20.5,  20.1,   0.0,  2.29, 
 03/09/13, 15:00,  23.6,  81,  21.4,  20.6,  20.1,   0.0,  1.85, 
 03/09/13, 16:00,  21.8,  82,  21.6,  20.6,  20.1,   0.0,  1.56, 
 03/09/13, 17:00,  21.1,  89,  21.6,  20.7,  20.1,   0.0,  0.96, 
 03/09/13, 18:00,  19.8,  95,  21.6,  20.7,  20.1,   0.0,  0.23, 
 03/09/13, 19:00,  19.5,  93,  21.5,  20.8,  20.1,   0.0,  0.00, 
 03/09/13, 20:00,  18.6,  96,  21.4,  20.8,  20.0,   0.0,  0.00, 
 03/09/13, 21:00,  18.2,  97,  21.2,  20.8,  20.1,   0.0,  0.00, 
 03/09/13, 22:00,  17.4,  98,  21.1,  20.9,  20.1,   2.5,  0.00, 
 03/09/13, 23:00,  17.0,  99,  20.9,  20.8,  20.1,   0.5,  0.00, 
 03/09/14, 00:00,  17.2,  97,  20.7,  20.8,  20.1,   0.0,  0.00, 
 03/09/14, 01:00,  16.8,  98,  20.6,  20.8,  20.1,   0.0,  0.00, 
 03/09/14, 02:00,  16.4,  96,  20.4,  20.7,  20.1,   0.0,  0.00, 
 03/09/14, 03:00,  16.3,  93,  20.3,  20.7,  20.1,   0.0,  0.00, 
 03/09/14, 04:00,  15.9,  91,  20.2,  20.6,  20.1,   0.0,  0.00, 
 03/09/14, 05:00,  14.9,  96,  20.0,  20.6,  20.1,   0.0,  0.00, 
 03/09/14, 06:00,  14.5,  99,  19.8,  20.5,  20.1,   0.0,  0.00, 
 03/09/14, 07:00,  14.7,  99,  19.7,  20.4,  20.1,   0.0,  0.24, 
 03/09/14, 08:00,  15.6,  98,  19.6,  20.4,  20.1,   0.0,  0.84, 
 03/09/14, 09:00,  16.0,  97,  19.7,  20.3,  20.1,   0.0,  0.61, 
 03/09/14, 10:00,  16.8,  92,  19.8,  20.1,  20.1,   0.0,  0.97, 
 03/09/14, 11:00,  18.5,  84,  20.0,  20.1,  20.1,   0.0,  1.85, 
 03/09/14, 12:00,  19.9,  81,  20.4,  20.1,  20.1,   0.0,  2.15, 
 03/09/14, 13:00,  20.3,  75,  20.9,  20.2,  20.1,   0.0,  2.50, 
 03/09/14, 14:00,  21.0,  67,  21.4,  20.2,  20.0,   0.0,  2.93, 
 03/09/14, 15:00,  20.5,  68,  21.6,  20.3,  20.0,   0.5,  2.29, 
 03/09/14, 16:00,  19.8,  64,  21.5,  20.4,  20.0,   0.0,  1.66, 
 03/09/14, 17:00,  17.8,  77,  21.4,  20.5,  20.0,   0.0,  1.01, 
 03/09/14, 18:00,  16.3,  86,  21.2,  20.6,  20.0,   0.0,  0.24, 
 03/09/14, 19:00,  15.8,  92,  20.9,  20.6,  20.0,   0.0,  0.00, 
 03/09/14, 20:00,  15.6,  94,  20.7,  20.6,  20.0,   0.0,  0.00, 
 03/09/14, 21:00,  15.4,  95,  20.5,  20.6,  20.0,   0.0,  0.00, 
 03/09/14, 22:00,  15.5,  91,  20.3,  20.6,  20.0,   0.0,  0.00, 
 03/09/14, 23:00,  14.5,  97,  20.1,  20.5,  20.0,   0.0,  0.00, 
 03/09/15, 00:00,  13.6,  99,  19.9,  20.4,  20.0,   0.0,  0.00, 
 03/09/15, 01:00,  13.8,  89,  19.7,  20.3,  20.0,   0.0,  0.00, 
 03/09/15, 02:00,  14.7,  62,  19.5,  20.4,  20.0,   0.0,  0.00, 
 03/09/15, 03:00,  10.7,  93,  19.1,  20.2,  20.0,   0.0,  0.00, 
 03/09/15, 04:00,  13.6,  75,  18.9,  20.1,  20.0,   0.5,  0.00, 
 03/09/15, 05:00,  12.4,  85,  18.6,  20.0,  20.0,   0.0,  0.00, 
 03/09/15, 06:00,  11.9,  86,  18.5,  20.0,  20.0,   0.0,  0.00, 
 03/09/15, 07:00,  13.9,  83,  18.4,  19.9,  20.0,   0.0,  0.40, 
 03/09/15, 08:00,  15.2,  80,  18.2,  19.7,  20.0,   0.0,  1.17, 
 03/09/15, 09:00,  16.7,  73,  18.2,  19.7,  20.0,   0.0,  1.93, 
 03/09/15, 10:00,  17.6,  79,  18.4,  19.6,  20.0,   0.0,  2.44, 
 03/09/15, 11:00,  17.5,  81,  18.8,  19.5,  19.9,   0.0,  1.68, 
 03/09/15, 12:00,  17.7,  81,  19.5,  19.5,  19.9,   0.0,  1.61, 
 03/09/15, 13:00,  19.1,  68,  20.0,  19.5,  19.9,   0.0,  1.74, 
 03/09/15, 14:00,  19.5,  63,  20.3,  19.5,  19.9,   0.0,  2.61, 
 03/09/15, 15:00,  19.0,  71,  20.5,  19.6,  19.9,   0.0,  1.92, 
 03/09/15, 16:00,  17.7,  81,  20.5,  19.7,  19.8,   0.0,  1.62, 
 03/09/15, 17:00,  16.6,  89,  20.5,  19.8,  19.8,   0.0,  0.88, 
 03/09/15, 18:00,  15.5,  96,  20.3,  19.9,  19.8,   0.0,  0.21, 
 03/09/15, 19:00,  14.5,  99,  20.2,  19.9,  19.8,   0.0,  0.00, 
 03/09/15, 20:00,  14.2,  99,  19.9,  19.9,  19.8,   0.0,  0.00, 
 03/09/15, 21:00,  14.1,  99,  19.7,  20.0,  19.8,   0.0,  0.00, 
 03/09/15, 22:00,  13.9,  99,  19.6,  19.9,  19.8,   0.0,  0.00, 
 03/09/15, 23:00,  13.5,  99,  19.4,  19.9,  19.8,   0.0,  0.00, 
 03/09/16, 00:00,  13.2,  99,  19.3,  19.9,  19.8,   0.0,  0.00, 
 03/09/16, 01:00,  12.3,  99,  19.0,  19.8,  19.7,   0.0,  0.00, 